This is the latest recevied weather packets stored in our database for station/object OK1FET-5. If no packets are shown the sender has not sent any weather packets the latest 1 day(s).
| Time | Temp. | Humidity | Pressure | Rain* | Wind** | Luminosity | Snow |
|---|---|---|---|---|---|---|---|
| 1777982454 | 30.56° C | 36% | 1007 hPa | - | 0.89 m/s, 132° | - | - |
| 1777982158 | 30° C | 37% | 1007.1 hPa | - | 1.79 m/s, 89° | - | - |
| 1777981862 | 30.56° C | 36% | 1007.1 hPa | - | 1.34 m/s, 116° | - | - |
| 1777981565 | 31.11° C | 35% | 1007 hPa | - | 1.34 m/s, 93° | - | - |
| 1777981269 | 31.67° C | 33% | 1007 hPa | - | 1.34 m/s, 223° | - | - |
| 1777980972 | 31.67° C | 35% | 1007.2 hPa | - | 0.89 m/s, 28° | - | - |
| 1777980676 | 31.11° C | 36% | 1007.2 hPa | - | 0.89 m/s, 332° | - | - |
| 1777980380 | 30° C | 37% | 1007.3 hPa | - | 1.34 m/s, 63° | - | - |
| 1777980084 | 29.44° C | 37% | 1007.3 hPa | - | 1.34 m/s, 126° | - | - |
| 1777979787 | 30.56° C | 34% | 1007.4 hPa | - | 1.34 m/s, 197° | - | - |
| 1777979491 | 31.11° C | 36% | 1007.4 hPa | - | 1.34 m/s, 59° | - | - |
| 1777979195 | 30.56° C | 36% | 1007.4 hPa | - | 0.89 m/s, 28° | - | - |
| 1777978899 | 29.44° C | 37% | 1007.5 hPa | - | 1.34 m/s, 152° | - | - |
| 1777978603 | 28.89° C | 35% | 1007.5 hPa | - | 2.24 m/s, 109° | - | - |
| 1777978307 | 28.89° C | 35% | 1007.5 hPa | - | 1.34 m/s, 87° | - | - |
| 1777978011 | 28.33° C | 37% | 1007.6 hPa | - | 2.24 m/s, 123° | - | - |
| 1777977715 | 27.78° C | 36% | 1007.6 hPa | - | 1.79 m/s, 128° | - | - |
| 1777977419 | 27.78° C | 36% | 1007.7 hPa | - | 1.79 m/s, 129° | - | - |
| 1777977123 | 28.33° C | 35% | 1007.8 hPa | - | 2.24 m/s, 102° | - | - |
| 1777976827 | 29.44° C | 37% | 1007.9 hPa | - | 1.34 m/s, 78° | - | - |
| 1777976530 | 29.44° C | 37% | 1008 hPa | - | 0.45 m/s, 280° | - | - |
| 1777976235 | 27.78° C | 38% | 1008.1 hPa | - | 1.34 m/s, 135° | - | - |
| 1777975939 | 26.67° C | 38% | 1008 hPa | - | 1.34 m/s, 164° | - | - |
| 1777975643 | 25.56° C | 39% | 1008.1 hPa | - | 1.34 m/s, 152° | - | - |
| 1777975347 | 25.56° C | 39% | 1008.1 hPa | - | 0.89 m/s, 80° | - | - |
* Rain since midnight (hover to see other rain measurements)
** Current wind speed in m/s (hover to see current wind gust speed)